San Jose, Costa Rica

1:11 AM CST on June 28, 2017 (GMT -0600)
Juan Santamaria International

Weather History for MROC - October, 2011

Change the Weather History Date:

Friday, October 28, 2011

  Actual Average Record
Temperature  
Mean Temperature 73 °F -  
Max Temperature 80 °F 78 °F 86 °F (2006)
Min Temperature 66 °F 64 °F 62 °F (2003)
Cooling Degree Days 8    
Growing Degree Days 23 (Base 50)    
Moisture  
Dew Point 67 °F    
Average Humidity 86    
Maximum Humidity 100    
Minimum Humidity 59    
Precipitation  
Precipitation 0.04 in 0.19 in - ()
Sea Level Pressure  
Sea Level Pressure 29.89 in    
Wind  
Wind Speed 4 mph ()    
Max Wind Speed 12 mph    
Max Gust Speed -    
Visibility 5.8 miles    
Events Fog , Rain , Thunderstorm    
Averages and records for this station are not official NWS values.
T = Trace of Precipitation, MM = Missing Value Source: Averaged Metar Reports

Daily Weather History Graph

Daily Weather History Graph

Search for Another Location

Airport or City:

Trip Planner

Search our weather history database for the weather conditions in past years. The results will help you decide how hot, cold, wet, or windy it might be!

Date:

Astronomy

Oct. 28, 2011 Rise Set
Actual Time 5:26 AM CST 5:14 PM CST
Civil Twilight 5:05 AM CST 5:36 PM CST
Nautical Twilight 4:40 AM CST 6:01 PM CST
Astronomical Twilight 4:15 AM CST 6:25 PM CST
Moon 7:11 AM CST 7:07 PM CST
Length of Visible Light 12h 31m
Length of Day
11h 48m
Waxing Crescent, 5% of the Moon is Illuminated
Oct 28
Waxing Crescent
Nov 2
First Quarter
Nov 10
Full
Nov 18
Last Quarter
Nov 25
New

Hourly Weather History & Observations

Time (CST) Temp. Dew Point Humidity Pressure Visibility Wind Dir Wind Speed Gust Speed Precip Events Conditions
12:00 AM 68.0 °F 66.2 °F 94% 29.93 in - NNE 3.5 mph - N/A   Clear
1:00 AM 68.0 °F 66.2 °F 94% 29.90 in 0.9 mi SW 3.5 mph - N/A   Mostly Cloudy
2:00 AM 68.0 °F 66.2 °F 94% 29.90 in 5.0 mi Calm Calm - N/A Fog Fog
3:00 AM 68.0 °F 66.2 °F 94% 29.95 in 5.0 mi Calm Calm - N/A Fog Drizzle
5:00 AM 68.0 °F 66.2 °F 94% 29.90 in 6.2 mi ESE 2.3 mph - N/A Fog Patches of Fog
6:00 AM 66.2 °F 66.2 °F 100% 29.90 in 6.2 mi ENE 2.3 mph - N/A   Mostly Cloudy
7:00 AM 73.4 °F 68.0 °F 83% 29.95 in 6.2 mi ESE 4.6 mph - N/A Fog Mostly Cloudy
8:00 AM 75.2 °F 66.2 °F 73% 29.94 in 6.2 mi ESE 3.5 mph - N/A Fog Mostly Cloudy
8:30 AM 78.8 °F 66.2 °F 65% 29.94 in 6.2 mi SW 4.6 mph - N/A   Partly Cloudy
9:00 AM 79 °F 67 °F 59% 29.79 in 12 mi WSW 5.8 mph - -   Partly Cloudy
9:00 AM 78.8 °F 68.0 °F 69% 29.95 in 6.2 mi WSW 5.8 mph - N/A   Mostly Cloudy
10:00 AM 75.2 °F 68.0 °F 78% 29.94 in 6.2 mi West 5.8 mph - N/A   Mostly Cloudy
11:00 AM 78.8 °F 66.2 °F 65% 29.91 in 6.2 mi WSW 4.6 mph - N/A   Mostly Cloudy
12:00 PM 79 °F 67 °F 60% 29.67 in 12 mi SW 8.1 mph - -   Partly Cloudy
12:00 PM 78.8 °F 68.0 °F 69% 29.88 in 6.2 mi SW 8.1 mph - N/A   Mostly Cloudy
1:00 PM 77.0 °F 68.0 °F 74% 29.86 in 6.2 mi WSW 10.4 mph - N/A   Mostly Cloudy
2:00 PM 73.4 °F 69.8 °F 88% 29.84 in 6.2 mi WSW 11.5 mph - N/A   Mostly Cloudy
2:15 PM 71.6 °F 69.8 °F 94% 29.85 in 1.9 mi WSW 11.5 mph - N/A Rain , Thunderstorm Light Thunderstorms and Rain
3:00 PM 72 °F 70 °F 91% 29.74 in 2 mi SSW 8.1 mph - - Rain , Thunderstorm Thunderstorms and Rain
3:00 PM 71.6 °F 69.8 °F 94% 29.85 in 2.5 mi SSW 8.1 mph - N/A Rain , Thunderstorm Thunderstorms and Rain
3:41 PM 69.8 °F 68.0 °F 94% 29.87 in 1.6 mi SW 9.2 mph - N/A Rain , Thunderstorm Light Rain
4:00 PM 69.8 °F 68.0 °F 94% 29.88 in 3.1 mi SSW 4.6 mph - N/A Rain , Thunderstorm Light Rain
5:00 PM 69.8 °F 66.2 °F 88% 29.89 in 6.2 mi SSE 2.3 mph - N/A Fog , Rain Light Rain
6:00 PM 70 °F 70 °F 99% 29.81 in 9 mi ENE 2.3 mph - -   Mostly Cloudy
6:00 PM 69.8 °F 69.8 °F 100% 29.90 in 6.2 mi ENE 2.3 mph - N/A Rain Light Rain
7:00 PM 69.8 °F 66.2 °F 88% 29.93 in 6.2 mi WSW 2.3 mph - N/A Fog , Rain Light Rain
8:00 PM 68.0 °F 68.0 °F 100% 29.97 in 6.2 mi WSW 3.5 mph - N/A Rain Light Rain
9:00 PM 70 °F 66 °F 83% 29.83 in 6 mi Calm Calm - -   Overcast
9:00 PM 68.0 °F 66.2 °F 94% 29.97 in 6.2 mi Calm Calm - N/A   Mostly Cloudy
10:00 PM 68.0 °F 66.2 °F 94% 29.97 in 6.2 mi NW 2.3 mph - N/A   Mostly Cloudy
11:00 PM 68.0 °F 66.2 °F 94% 29.96 in 6.2 mi East 3.5 mph - N/A   Scattered Clouds